1512612000.18,44022,4.13,73620.5,-6.29,-7.27,-7.35,0,*5E
1512612001.43,44023,4.13,73626.3,-6.25,-7.31,-7.31,0,*50
1512612002.71,44024,4.13,73626.3,-6.23,-7.35,-7.31,0,*55
1512612003.96,44025,4.13,73626.3,-6.25,-7.35,-7.31,0,*52
1512612005.21,44026,4.13,73622.0,-6.25,-7.31,-7.31,0,*55
1512612006.47,44027,4.13,73622.3,-6.29,-7.35,-7.35,0,*58
1512612007.72,44028,4.13,73628.5,-6.25,-7.31,-7.31,0,*5B
1512612008.99,44029,4.13,73630.8,-6.29,-7.35,-7.35,0,*56
1512612010.25,44030,4.19,73632.8,-6.29,-7.39,-7.27,0,*51
1512612011.52,44031,4.13,73630.8,-6.29,-7.35,-7.35,0,*5F
1512612012.78,44032,4.13,73632.3,-6.29,-7.39,-7.35,0,*50
1512612014.05,44033,4.13,73630.5,-6.29,-7.35,-7.35,0,*5D
1512612015.31,44034,4.13,73628.5,-6.29,-7.35,-7.35,0,*5A
1512612016.55,44035,4.19,73626.3,-6.31,-7.39,-7.35,0,*5E
1512612017.79,44036,4.19,73626.0,-6.31,-7.39,-7.35,0,*5D
1512612019.03,44037,4.13,73626.5,-6.31,-7.39,-7.35,0,*5C
1512612020.26,44038,4.13,73630.0,-6.31,-7.39,-7.35,0,*53
1512612021.5,44039,4.19,73630.8,-6.29,-7.49,-7.35,0,*5C
1512612022.74,44040,4.19,73628.8,-6.31,-7.39,-7.35,0,*5C
1512612023.98,44041,4.13,73630.8,-6.31,-7.39,-7.35,0,*5D
1512612025.22,44042,4.13,73628.8,-6.31,-7.39,-7.39,0,*52
1512612026.45,44043,4.13,73630.0,-6.31,-7.39,-7.39,0,*53
1512612027.7,44044,4.19,73630.5,-6.31,-7.35,-7.35,0,*54
1512612028.94,44045,4.19,73630.5,-6.31,-7.35,-7.35,0,*55
1512612030.21,44046,4.13,73624.8,-6.33,-7.31,-7.31,0,*54
1512612031.45,44047,4.13,73624.0,-6.31,-7.35,-7.35,0,*57
1512612032.72,44048,4.13,73626.3,-6.33,-7.39,-7.39,0,*5A
1512612033.98,44049,4.19,73632.8,-6.33,-7.39,-7.39,0,*5B
1512612035.22,44050,4.13,73630.3,-6.31,-7.39,-7.35,0,*5D
1512612036.46,44051,4.13,73630.0,-6.31,-7.35,-7.35,0,*50
1512612037.71,44052,4.19,73634.3,-6.31,-7.35,-7.35,0,*53
1512612038.97,44053,4.13,73632.0,-6.33,-7.39,-7.39,0,*50
1512612040.24,44054,4.13,73634.3,-6.33,-7.43,-7.39,0,*5A
1512612041.52,44055,4.19,73640.5,-6.33,-7.43,-7.43,0,*56
1512612042.76,44056,4.13,73642.3,-6.35,-7.39,-7.39,0,*53
1512612044.02,44057,4.13,73652.0,-6.33,-7.39,-7.31,0,*5C
1512612045.28,44058,4.13,73656.8,-6.33,-7.39,-7.39,0,*5B
1512612046.56,44059,4.13,73656.8,-6.33,-7.43,-7.39,0,*57
1512612047.83,44060,4.13,73654.3,-6.33,-7.43,-7.39,0,*5D
1512612049.1,44061,4.13,73654.8,-6.33,-7.43,-7.39,0,*5C
1512612050.37,44062,4.13,73656.5,-6.33,-7.43,-7.39,0,*5F
1512612051.63,44063,4.13,73650.3,-6.33,-7.39,-7.39,0,*53
1512612052.9,44064,4.13,73646.8,-6.33,-7.39,-7.39,0,*54
1512612054.14,44065,4.13,73652.0,-6.35,-7.39,-7.39,0,*53
1512612055.38,44066,4.13,73652.8,-6.35,-7.43,-7.39,0,*5D
1512612056.62,44067,4.13,73650.5,-6.35,-7.39,-7.31,0,*59
1512612057.87,44068,4.19,73652.5,-6.35,-7.39,-7.31,0,*56
1512612059.11,44069,4.13,73648.8,-6.35,-7.39,-7.39,0,*5F
1512612060.35,44070,4.13,73648.8,-6.35,-7.31,-7.39,0,*5F
1512612061.59,44071,4.13,73652.8,-6.35,-7.39,-7.39,0,*56
1512612062.83,44072,4.13,73654.0,-6.35,-7.39,-7.39,0,*55
1512612064.07,44073,4.19,73660.5,-6.35,-7.39,-7.39,0,*54
1512612065.32,44074,4.13,73662.8,-6.35,-7.31,-7.31,0,*53
1512612066.56,44075,4.13,73662.0,-6.35,-7.31,-7.31,0,*52
1512612067.83,44076,4.19,73666.0,-6.37,-7.35,-7.35,0,*53
1512612069.1,44077,4.13,73664.5,-6.37,-7.35,-7.35,0,*52
1512612070.36,44078,4.13,73662.8,-6.37,-7.39,-7.43,0,*50
1512612071.61,44079,4.19,73664.5,-6.35,-7.31,-7.31,0,*5E
1512612072.88,44080,4.19,73666.8,-6.37,-7.43,-7.35,0,*5B
1512612074.12,44081,4.13,73660.8,-6.35,-7.31,-7.27,0,*5E
1512612075.39,44082,4.13,73662.8,-6.37,-7.35,-7.31,0,*5C
1512612076.63,44083,4.13,73662.8,-6.35,-7.31,-7.27,0,*5C
1512612077.88,44084,4.13,73658.5,-6.35,-7.27,-7.31,0,*5B
1512612079.12,44085,4.13,73656.5,-6.35,-7.31,-7.31,0,*5D
1512612080.37,44086,4.13,73654.0,-6.35,-7.27,-7.31,0,*59
1512612081.61,44087,4.13,73644.0,-6.35,-7.27,-7.31,0,*58
1512612082.88,44088,4.13,73642.8,-6.37,-7.31,-7.35,0,*56
1512612084.15,44089,4.13,73642.8,-6.37,-7.43,-7.35,0,*52
1512612085.41,44090,4.19,73640.8,-6.37,-7.35,-7.31,0,*5F
1512612086.66,44091,4.13,73636.8,-6.37,-7.35,-7.23,0,*5D
1512612087.93,44092,4.13,73640.8,-6.37,-7.43,-7.31,0,*5C
1512612089.19,44093,4.13,73642.3,-6.37,-7.31,-7.27,0,*5F
1512612090.43,44094,4.13,73642.8,-6.37,-7.31,-7.23,0,*5C
1512612091.7,44095,4.13,73642.5,-6.37,-7.35,-7.31,0,*5A
1512612092.95,44096,4.13,73650.8,-6.33,-7.19,-7.27,0,*54
1512612094.22,44097,4.13,73654.8,-6.37,-7.35,-7.31,0,*58
1512612095.48,44098,4.13,73658.5,-6.37,-7.31,-7.31,0,*53
1512612096.71,44099,4.13,73656.8,-6.35,-7.23,-7.31,0,*53
1512612097.97,44100,4.13,73650.0,-6.37,-7.31,-7.31,0,*53
1512612099.22,44101,4.13,73646.5,-6.35,-7.27,-7.27,0,*50
1512612100.44,44102,4.13,73644.3,-6.35,-7.27,-7.19,0,*5E
1512612101.7,44103,4.13,73650.3,-6.37,-7.27,-7.31,0,*57
1512612102.95,44104,4.13,73644.3,-6.37,-7.23,-7.31,0,*54
1512612104.21,44105,4.19,73630.5,-6.37,-7.35,-7.31,0,*52
1512612105.46,44106,4.19,73630.0,-6.35,-7.31,-7.31,0,*57
1512612106.72,44107,4.13,73624.8,-6.37,-7.31,-7.31,0,*54
1512612107.99,44108,4.13,73624.0,-6.37,-7.31,-7.35,0,*5F
1512612109.23,44109,4.13,73626.8,-6.35,-7.27,-7.39,0,*57
1512612110.5,44110,4.13,73626.5,-6.37,-7.31,-7.35,0,*56
1512612111.76,44111,4.13,73624.5,-6.37,-7.31,-7.31,0,*53
1512612113.03,44112,4.13,73624.5,-6.37,-7.31,-7.31,0,*50
1512612114.27,44113,4.13,73620.0,-6.39,-7.27,-7.35,0,*5C
1512612115.54,44114,4.13,73620.3,-6.37,-7.31,-7.31,0,*56
1512612116.78,44115,4.13,73624.0,-6.39,-7.27,-7.27,0,*59
1512612118.03,44116,4.13,73614.8,-6.39,-7.35,-7.35,0,*5A
1512612119.28,44117,4.13,73610.0,-6.39,-7.35,-7.27,0,*58
1512612120.54,44118,4.13,73612.3,-6.37,-7.35,-7.31,0,*5E
1512612121.77,44119,4.13,73612.3,-6.37,-7.23,-7.23,0,*5B
1512612123.01,44120,4.13,73604.5,-6.39,-7.27,-7.27,0,*5F
1512612124.28,44121,4.13,73610.8,-6.41,-7.27,-7.27,0,*51
1512612125.5,44122,4.13,73614.8,-6.37,-7.23,-7.19,0,*5A
1512612126.72,44123,4.13,73608.0,-6.39,-7.27,-7.23,0,*58
1512612127.93,44124,4.13,73606.0,-6.39,-7.19,-7.23,0,*52
1512612129.13,44125,4.13,73614.5,-6.39,-7.23,-7.23,0,*5A
1512612130.35,44126,4.13,73614.8,-6.37,-7.23,-7.19,0,*5E
1512612131.57,44127,4.19,73618.0,-6.39,-7.27,-7.23,0,*5C
1512612132.77,44128,4.13,73616.8,-6.39,-7.23,-7.23,0,*57
1512612133.97,44129,4.19,73618.5,-6.39,-7.23,-7.23,0,*56
1512612135.2,44130,4.19,73612.3,-6.37,-7.19,-7.19,0,*50
1512612136.4,44131,4.13,73608.3,-6.39,-7.19,-7.23,0,*56
1512612137.63,44132,4.13,73614.0,-6.41,-7.23,-7.23,0,*53
1512612138.83,44133,4.13,73612.8,-6.39,-7.23,-7.23,0,*5D
1512612140.03,44134,4.13,73624.8,-6.39,-7.23,-7.23,0,*5A
1512612141.23,44135,4.13,73624.8,-6.35,-7.15,-7.11,0,*53
1512612142.45,44136,4.13,73622.8,-6.37,-7.19,-7.19,0,*56
1512612143.68,44137,4.13,73620.0,-6.37,-7.19,-7.19,0,*57
1512612144.9,44138,4.13,73612.8,-6.37,-7.19,-7.19,0,*58
1512612146.13,44139,4.13,73614.0,-6.37,-7.19,-7.23,0,*50
1512612147.35,44140,4.13,73612.0,-6.39,-7.23,-7.27,0,*5D
1512612148.55,44141,4.13,73614.3,-6.39,-7.23,-7.23,0,*58
1512612149.77,44142,4.13,73618.3,-6.37,-7.19,-7.19,0,*55
1512612150.98,44143,4.13,73612.3,-6.35,-7.19,-7.15,0,*5A
1512612152.19,44144,4.13,73608.0,-6.37,-7.23,-7.19,0,*5A
1512612153.41,44145,4.13,73606.0,-6.37,-7.23,-7.19,0,*5B
1512612154.64,44146,4.19,73602.5,-6.39,-7.27,-7.23,0,*5B
1512612155.86,44147,4.13,73602.0,-6.37,-7.23,-7.19,0,*59
1512612157.08,44148,4.13,73610.0,-6.37,-7.23,-7.23,0,*5F
1512612158.3,44149,4.13,73614.0,-6.37,-7.23,-7.23,0,*5E
1512612159.55,44150,4.13,73606.8,-6.39,-7.27,-7.27,0,*58
1512612160.79,44151,4.19,73610.3,-6.39,-7.27,-7.27,0,*59
1512612162.04,44152,4.13,73604.0,-6.39,-7.27,-7.27,0,*5A
1512612163.28,44153,4.13,73600.0,-6.39,-7.27,-7.27,0,*5B
1512612164.53,44154,4.13,73598.5,-6.39,-7.27,-7.27,0,*5C
1512612165.77,44155,4.13,73626.8,-6.41,-7.27,-7.23,0,*56
1512612167.0,44156,4.13,73618.5,-6.39,-7.27,-7.23,0,*5A
1512612168.22,44157,4.13,73612.0,-6.39,-7.27,-7.23,0,*5B
1512612169.44,44158,4.13,73620.8,-6.39,-7.27,-7.23,0,*54
1512612170.69,44159,4.19,73614.3,-6.39,-7.27,-7.35,0,*52
1512612171.93,44160,4.19,73614.5,-6.39,-7.27,-7.27,0,*5B
1512612173.18,44161,4.19,73604.0,-6.39,-7.27,-7.27,0,*5A
1512612174.42,44162,4.13,73604.5,-6.39,-7.35,-7.35,0,*59
1512612175.67,44163,4.13,73596.3,-6.39,-7.27,-7.27,0,*58
1512612176.91,44164,4.13,73592.8,-6.39,-7.27,-7.35,0,*5C
1512612178.16,44165,4.13,73592.3,-6.39,-7.27,-7.35,0,*5D
1512612179.41,44166,4.13,73596.3,-6.39,-7.27,-7.27,0,*5D
1512612180.65,44167,4.19,73606.0,-6.39,-7.27,-7.35,0,*5F
1512612181.92,44168,4.13,73596.8,-6.41,-7.27,-7.39,0,*53
1512612183.16,44169,4.13,73600.3,-6.39,-7.35,-7.27,0,*51
1512612184.41,44170,4.13,73606.8,-6.39,-7.35,-7.27,0,*59
1512612185.66,44171,4.13,73602.8,-6.39,-7.35,-7.35,0,*5B
1512612186.91,44172,4.13,73604.8,-6.39,-7.35,-7.27,0,*5B
1512612188.18,44173,4.13,73606.5,-6.41,-7.35,-7.27,0,*55
1512612189.43,44174,4.13,73606.3,-6.39,-7.35,-7.27,0,*5D
1512612190.67,44175,4.13,73604.8,-6.39,-7.35,-7.35,0,*5F
1512612191.94,44176,4.13,73612.8,-6.41,-7.35,-7.27,0,*50
1512612193.22,44177,4.13,73612.3,-6.41,-7.35,-7.27,0,*51
1512612194.46,44178,4.13,73610.3,-6.39,-7.35,-7.35,0,*52
1512612195.71,44179,4.13,73604.0,-6.39,-7.35,-7.35,0,*53
1512612196.96,44180,4.19,73610.5,-6.39,-7.35,-7.35,0,*55
1512612198.2,44181,4.13,73604.0,-6.39,-7.35,-7.27,0,*57
1512612199.45,44182,4.13,73610.3,-6.39,-7.35,-7.27,0,*54
1512612200.7,44183,4.13,73618.8,-6.39,-7.35,-7.35,0,*56
1512612201.97,44184,4.13,73616.8,-6.41,-7.35,-7.35,0,*5E
1512612203.24,44185,4.13,73630.3,-6.41,-7.27,-7.27,0,*5F
1512612204.51,44186,4.13,73622.3,-6.41,-7.35,-7.35,0,*5C
1512612205.76,44187,4.13,73624.5,-6.39,-7.35,-7.27,0,*51
1512612207.03,44188,4.13,73632.8,-6.41,-7.35,-7.35,0,*52
1512612208.3,44189,4.13,73636.0,-6.41,-7.27,-7.35,0,*50
1512612209.54,44190,4.13,73636.5,-6.39,-7.35,-7.27,0,*57
1512612210.82,44191,4.13,73636.3,-6.41,-7.35,-7.27,0,*59
1512612212.09,44192,4.13,73640.0,-6.41,-7.35,-7.35,0,*59
1512612213.33,44193,4.13,73642.5,-6.39,-7.35,-7.27,0,*54
1512612214.6,44194,4.13,73640.3,-6.41,-7.27,-7.27,0,*5F
1512612215.85,44195,4.13,73640.5,-6.39,-7.27,-7.35,0,*52
1512612217.12,44196,4.13,73632.0,-6.41,-7.27,-7.27,0,*5D
1512612218.39,44197,4.13,73632.8,-6.41,-7.27,-7.27,0,*5C
1512612219.63,44198,4.13,73626.5,-6.39,-7.35,-7.27,0,*5F
1512612220.9,44199,4.13,73628.5,-6.41,-7.35,-7.27,0,*51
1512612222.17,44200,4.13,73624.3,-6.41,-7.27,-7.27,0,*51
1512612223.44,44201,4.19,73626.3,-6.41,-7.27,-7.27,0,*50
1512612224.71,44202,4.13,73624.5,-6.41,-7.27,-7.27,0,*53
1512612225.98,44203,4.19,73634.8,-6.41,-7.27,-7.27,0,*52
1512612227.25,44204,4.13,73632.3,-6.41,-7.27,-7.27,0,*55
1512612228.52,44205,4.19,73636.5,-6.41,-7.27,-7.27,0,*54
1512612229.79,44206,4.13,73634.5,-6.41,-7.27,-7.27,0,*57
1512612231.03,44207,4.13,73630.5,-6.41,-7.23,-7.27,0,*52
1512612232.26,44208,4.13,73634.8,-6.41,-7.23,-7.23,0,*59
1512612233.48,44209,4.13,73630.3,-6.41,-7.23,-7.19,0,*51
1512612234.68,44210,4.13,73624.8,-6.39,-7.23,-7.23,0,*5F
1512612235.93,44211,4.13,73624.5,-6.41,-7.23,-7.27,0,*55
1512612237.18,44212,4.13,73626.0,-6.41,-7.23,-7.27,0,*56
1512612238.42,44213,4.13,73620.3,-6.41,-7.23,-7.27,0,*57
1512612239.67,44214,4.13,73612.3,-6.41,-7.23,-7.27,0,*50
1512612240.92,44215,4.13,73608.3,-6.41,-7.23,-7.27,0,*51
1512612242.17,44216,4.19,73614.5,-6.41,-7.23,-7.27,0,*52
1512612243.41,44217,4.13,73634.3,-6.41,-7.23,-7.27,0,*53
1512612244.68,44218,4.13,73636.3,-6.41,-7.27,-7.27,0,*58
1512612245.95,44219,4.13,73630.5,-6.41,-7.27,-7.27,0,*59
1512612247.2,44220,4.19,73640.3,-6.41,-7.27,-7.23,0,*57
1512612248.47,44221,4.13,73624.8,-6.41,-7.35,-7.27,0,*51
1512612249.74,44222,4.13,73618.5,-6.41,-7.27,-7.27,0,*51
1512612251.01,44223,4.13,73612.5,-6.41,-7.27,-7.27,0,*50
1512612252.27,44224,4.13,73620.0,-6.41,-7.27,-7.27,0,*57
1512612253.54,44225,4.13,73626.3,-6.41,-7.27,-7.27,0,*56
1512612254.81,44226,4.13,73630.8,-6.41,-7.27,-7.27,0,*55
1512612256.08,44227,4.19,73638.0,-6.41,-7.27,-7.27,0,*54
1512612257.33,44228,4.13,73632.0,-6.39,-7.27,-7.27,0,*54
1512612258.59,44229,4.13,73628.5,-6.41,-7.27,-7.27,0,*5A
1512612259.84,44230,4.13,73628.5,-6.43,-7.31,-7.31,0,*50
1512612261.08,44231,4.13,73622.3,-6.43,-7.31,-7.31,0,*51
1512612262.33,44232,4.13,73612.0,-6.41,-7.27,-7.23,0,*54
1512612263.57,44233,4.13,73616.0,-6.41,-7.35,-7.23,0,*56
1512612264.85,44234,4.13,73616.3,-6.41,-7.35,-7.27,0,*55
1512612266.11,44235,4.13,73610.5,-6.41,-7.27,-7.35,0,*54
1512612267.38,44236,4.13,73608.3,-6.41,-7.27,-7.27,0,*54
1512612268.62,44237,4.13,73606.3,-6.43,-7.31,-7.31,0,*57
1512612269.89,44238,4.13,73612.8,-6.41,-7.27,-7.27,0,*5A
1512612271.14,44239,4.13,73610.8,-6.43,-7.31,-7.39,0,*51
1512612272.4,44240,4.13,73610.5,-6.41,-7.27,-7.27,0,*55
1512612273.67,44241,4.13,73604.8,-6.41,-7.27,-7.27,0,*54
1512612274.94,44242,4.13,73604.8,-6.41,-7.27,-7.27,0,*57
1512612276.18,44243,4.13,73606.8,-6.43,-7.31,-7.39,0,*5C
1512612277.45,44244,4.13,73600.8,-6.45,-7.39,-7.31,0,*5D
1512612278.72,44245,4.13,73608.0,-6.41,-7.35,-7.27,0,*53
1512612279.96,44246,4.13,73608.0,-6.43,-7.39,-7.39,0,*51
1512612281.2,44247,4.13,73604.0,-6.43,-7.31,-7.39,0,*58
1512612282.44,44248,4.13,73606.3,-6.43,-7.31,-7.31,0,*5F
1512612283.68,44249,4.13,73616.5,-6.43,-7.39,-7.31,0,*56
1512612284.92,44250,4.13,73612.3,-6.43,-7.39,-7.31,0,*5E
1512612286.16,44251,4.19,73618.5,-6.43,-7.39,-7.39,0,*57
1512612287.4,44252,4.13,73618.5,-6.43,-7.39,-7.39,0,*54
1512612288.63,44253,4.13,73606.0,-6.43,-7.39,-7.31,0,*5D
1512612289.91,44254,4.13,73602.8,-6.45,-7.43,-7.39,0,*59
1512612291.15,44255,4.13,73618.3,-6.43,-7.43,-7.39,0,*5E
1512612292.4,44256,4.13,73612.0,-6.43,-7.43,-7.43,0,*50
1512612293.65,44257,4.13,73610.0,-6.43,-7.43,-7.39,0,*5C
1512612294.92,44258,4.13,73604.0,-6.45,-7.43,-7.39,0,*55
1512612296.16,44259,4.13,73600.5,-6.43,-7.43,-7.39,0,*52
1512612297.41,44260,4.13,73606.5,-6.43,-7.43,-7.43,0,*55
1512612298.68,44261,4.13,73606.8,-6.45,-7.39,-7.39,0,*52
1512612299.95,44262,4.13,73608.3,-6.45,-7.43,-7.43,0,*51
1512612301.2,44263,4.13,73608.5,-6.43,-7.43,-7.39,0,*5B
1512612302.47,44264,4.13,73614.0,-6.45,-7.43,-7.43,0,*57
1512612303.72,44265,4.13,73616.3,-6.43,-7.43,-7.43,0,*50
1512612304.99,44266,4.13,73612.0,-6.45,-7.43,-7.39,0,*58
1512612306.18,44267,4.13,73618.0,-6.43,-7.53,-7.53,0,*52
1512612307.45,44268,4.19,73600.8,-6.45,-7.39,-7.39,0,*5B
1512612308.72,44269,4.13,73594.3,-6.45,-7.43,-7.43,0,*5A
1512612309.99,44270,4.19,73600.5,-6.45,-7.43,-7.39,0,*5F
1512612311.21,44271,4.13,73604.0,-6.43,-7.43,-7.53,0,*54
1512612312.48,44272,4.13,73604.0,-6.45,-7.43,-7.43,0,*50
1512612313.73,44273,4.13,73604.0,-6.45,-7.53,-7.39,0,*5D
1512612315.0,44274,4.13,73606.3,-6.45,-7.43,-7.39,0,*5B
1512612316.24,44275,4.13,73604.5,-6.45,-7.43,-7.53,0,*56
1512612317.49,44276,4.13,73602.3,-6.47,-7.43,-7.43,0,*56
1512612318.77,44277,4.13,73604.8,-6.45,-7.43,-7.43,0,*55
1512612320.02,44278,4.13,73600.8,-6.45,-7.53,-7.43,0,*5B
1512612321.29,44279,4.13,73602.5,-6.45,-7.43,-7.39,0,*56
1512612322.56,44280,4.13,73600.5,-6.45,-7.43,-7.43,0,*5D
1512612323.84,44281,4.13,73602.8,-6.45,-7.43,-7.43,0,*5C
1512612325.08,44282,4.13,73618.3,-6.45,-7.43,-7.53,0,*5E
1512612326.36,44283,4.13,73618.5,-6.45,-7.43,-7.43,0,*5E
1512612327.6,44284,4.19,73608.0,-6.45,-7.53,-7.43,0,*58
1512612328.8,44285,4.13,73604.3,-6.51,-7.49,-7.49,0,*5D
1512612330.02,44286,4.19,73618.5,-6.47,-7.53,-7.39,0,*55
1512612331.24,44287,4.13,73612.8,-6.51,-7.57,-7.49,0,*50
1512612332.49,44288,4.13,73614.3,-6.47,-7.43,-7.39,0,*5A
1512612333.74,44289,4.13,73608.5,-6.47,-7.43,-7.43,0,*56
1512612334.99,44290,4.13,73608.3,-6.47,-7.43,-7.43,0,*5E
1512612336.24,44291,4.13,73618.0,-6.47,-7.43,-7.39,0,*52
1512612337.49,44292,4.13,73614.5,-6.47,-7.43,-7.31,0,*59
1512612338.75,44293,4.13,73616.8,-6.51,-7.57,-7.43,0,*5F
1512612339.99,44294,4.13,73616.3,-6.47,-7.43,-7.39,0,*57
1512612341.25,44295,4.13,73620.0,-6.51,-7.43,-7.43,0,*5C
1512612342.49,44296,4.13,73630.3,-6.47,-7.39,-7.31,0,*50
1512612343.74,44297,4.13,73632.8,-6.47,-7.43,-7.31,0,*5C
1512612344.98,44298,4.19,73632.5,-6.47,-7.39,-7.31,0,*5E
1512612346.23,44299,4.13,73630.0,-6.51,-7.43,-7.35,0,*51
1512612347.48,44300,4.19,73618.0,-6.51,-7.43,-7.43,0,*51
1512612348.73,44301,4.19,73608.8,-6.51,-7.35,-7.35,0,*50
1512612349.97,44302,4.19,73614.0,-6.51,-7.35,-7.35,0,*53
1512612351.22,44303,4.13,73612.5,-6.51,-7.31,-7.43,0,*57
1512612352.47,44304,4.13,73614.3,-6.51,-7.35,-7.35,0,*55
1512612353.72,44305,4.13,73622.0,-6.51,-7.35,-7.35,0,*54
1512612354.96,44306,4.13,73626.8,-6.47,-7.39,-7.31,0,*58
1512612356.21,44307,4.13,73626.8,-6.47,-7.31,-7.31,0,*51
1512612357.45,44308,4.13,73624.0,-6.51,-7.35,-7.35,0,*59
1512612358.7,44309,4.13,73628.8,-6.51,-7.35,-7.35,0,*58
1512612359.95,44310,4.13,73624.3,-6.51,-7.35,-7.35,0,*50
1512612361.2,44311,4.13,73630.5,-6.51,-7.35,-7.35,0,*51
1512612362.44,44312,4.13,73628.5,-6.51,-7.35,-7.35,0,*52
1512612363.69,44313,4.13,73628.5,-6.51,-7.35,-7.35,0,*53
1512612364.94,44314,4.13,73636.0,-6.47,-7.31,-7.31,0,*53
1512612366.19,44315,4.13,73634.0,-6.51,-7.35,-7.35,0,*55
1512612367.43,44316,4.13,73616.3,-6.47,-7.31,-7.31,0,*51
1512612368.67,44317,4.13,73618.8,-6.47,-7.31,-7.31,0,*50
1512612369.92,44318,4.13,73618.5,-6.51,-7.35,-7.35,0,*58
1512612371.17,44319,4.13,73618.3,-6.51,-7.35,-7.35,0,*59
1512612372.42,44320,4.13,73618.3,-6.51,-7.35,-7.31,0,*57
1512612373.66,44321,4.13,73618.5,-6.47,-7.35,-7.31,0,*51
1512612374.91,44322,4.13,73622.3,-6.47,-7.27,-7.27,0,*56
1512612376.16,44323,4.13,73626.0,-6.51,-7.31,-7.31,0,*50
1512612377.4,44324,4.13,73622.0,-6.51,-7.31,-7.31,0,*57
1512612378.6,44325,4.13,73624.8,-6.47,-7.23,-7.23,0,*51
1512612379.85,44326,4.13,73626.0,-6.47,-7.31,-7.31,0,*52
1512612381.05,44327,4.19,73622.8,-6.47,-7.23,-7.23,0,*53
1512612382.29,44328,4.19,73622.0,-6.51,-7.27,-7.31,0,*5C
1512612383.54,44329,4.13,73610.0,-6.51,-7.31,-7.31,0,*5A
1512612384.78,44330,4.19,73614.3,-6.51,-7.31,-7.27,0,*55
1512612386.01,44331,4.13,73612.8,-6.51,-7.27,-7.23,0,*57
1512612387.23,44332,4.13,73612.8,-6.47,-7.23,-7.27,0,*53
1512612388.45,44333,4.13,73610.8,-6.51,-7.27,-7.19,0,*5C
1512612389.65,44334,4.13,73606.5,-6.47,-7.15,-7.15,0,*51
1512612390.87,44335,4.13,73610.3,-6.51,-7.27,-7.19,0,*5A
1512612392.08,44336,4.13,73616.0,-6.47,-7.23,-7.15,0,*56
1512612393.28,44337,4.13,73608.8,-6.47,-7.23,-7.23,0,*52
1512612394.48,44338,4.13,73612.0,-6.47,-7.15,-7.15,0,*5D
1512612395.68,44339,4.13,73618.3,-6.47,-7.11,-7.23,0,*5D
1512612396.88,44340,4.13,73622.0,-6.47,-7.15,-7.15,0,*52
1512612398.08,44341,4.13,73622.0,-6.47,-7.23,-7.15,0,*56
1512612399.28,44342,4.13,73610.0,-6.51,-7.19,-7.15,0,*5B
1512612400.49,44343,4.13,73614.8,-6.51,-7.19,-7.15,0,*5A
1512612401.69,44344,4.13,73616.8,-6.47,-7.11,-7.11,0,*56
1512612402.89,44345,4.13,73608.5,-6.51,-7.15,-7.15,0,*50
1512612404.1,44346,4.13,73614.0,-6.47,-7.15,-7.11,0,*50
1512612405.3,44347,4.19,73620.3,-6.47,-7.15,-7.11,0,*51
1512612406.5,44348,4.13,73618.8,-6.47,-7.15,-7.11,0,*5E
1512612407.73,44349,4.13,73614.5,-6.45,-7.11,-7.15,0,*5D
1512612408.93,44350,4.13,73616.0,-6.47,-7.11,-7.11,0,*53
1512612410.16,44351,4.13,73606.5,-6.45,-7.11,-7.11,0,*50
1512612411.37,44352,4.13,73600.8,-6.47,-7.11,-7.11,0,*51
1512612412.58,44353,4.13,73604.8,-6.47,-7.11,-7.11,0,*50
1512612413.82,44354,4.19,73598.3,-6.45,-7.11,-7.01,0,*54
1512612415.07,44355,4.13,73584.5,-6.45,-7.11,-7.01,0,*55
1512612416.32,44356,4.13,73596.0,-6.43,-7.01,-7.01,0,*51
1512612417.56,44357,4.13,73594.0,-6.43,-7.01,-7.01,0,*50
1512612418.83,44358,4.13,73592.3,-6.45,-7.01,-7.01,0,*59
1512612420.06,44359,4.13,73588.5,-6.45,-7.11,-7.11,0,*58
1512612421.29,44360,4.13,73598.3,-6.45,-7.15,-7.11,0,*56
1512612422.49,44361,4.13,73598.5,-6.43,-7.11,-7.11,0,*55
1512612423.72,44362,4.13,73590.0,-6.45,-7.11,-7.11,0,*50
1512612424.92,44363,4.13,73598.8,-6.43,-7.11,-7.11,0,*57
1512612426.16,44364,4.13,73592.8,-6.43,-7.01,-7.01,0,*50
1512612427.39,44365,4.13,73592.8,-6.43,-7.01,-7.11,0,*50
1512612428.61,44366,4.13,73588.8,-6.45,-7.11,-7.15,0,*50
1512612429.84,44367,4.13,73584.8,-6.45,-7.11,-7.11,0,*55
1512612431.07,44368,4.13,73574.5,-6.43,-7.11,-6.97,0,*53
1512612432.29,44369,4.13,73578.8,-6.43,-7.01,-7.11,0,*5C
1512612433.52,44370,4.13,73590.5,-6.43,-7.01,-7.11,0,*54
1512612434.72,44371,4.13,73594.0,-6.43,-7.11,-7.15,0,*50
1512612435.94,44372,4.13,73610.3,-6.43,-7.01,-7.11,0,*56
1512612437.16,44373,4.13,73600.5,-6.43,-7.01,-7.11,0,*57
1512612438.42,44374,4.13,73606.8,-6.45,-6.97,-7.11,0,*58
1512612439.64,44375,4.13,73612.0,-6.43,-7.11,-7.01,0,*51
1512612440.84,44376,4.13,73618.5,-6.43,-7.11,-7.11,0,*53
1512612442.04,44377,4.13,73618.3,-6.43,-7.15,-7.11,0,*56
1512612443.27,44378,4.13,73620.8,-6.43,-7.11,-7.01,0,*5C
1512612444.51,44379,4.13,73616.8,-6.43,-7.01,-6.97,0,*52
1512612445.75,44380,4.13,73618.8,-6.43,-7.01,-7.01,0,*5A
1512612446.98,44381,4.13,73618.0,-6.43,-7.01,-7.11,0,*5A
1512612448.18,44382,4.13,73620.0,-6.43,-7.11,-7.11,0,*58
1512612449.42,44383,4.13,73620.8,-6.43,-7.01,-7.01,0,*59
1512612450.69,44384,4.13,73622.5,-6.41,-6.97,-6.97,0,*5C
1512612451.97,44385,4.13,73624.0,-6.41,-6.93,-6.93,0,*5D
1512612453.24,44386,4.13,73622.8,-6.41,-6.93,-6.93,0,*5E
1512612454.51,44387,4.13,73624.5,-6.41,-6.93,-6.97,0,*5B
1512612455.79,44388,4.19,73630.0,-6.41,-6.97,-6.97,0,*50
1512612457.06,44389,4.19,73628.3,-6.41,-6.93,-6.97,0,*55
1512612458.33,44390,4.13,73618.0,-6.41,-6.97,-6.93,0,*5D
1512612459.57,44391,4.13,73602.8,-6.41,-6.85,-6.97,0,*5B
1512612460.82,44392,4.13,73602.3,-6.39,-6.97,-6.93,0,*50
1512612462.1,44393,4.19,73604.5,-6.41,-6.93,-6.93,0,*5A
1512612463.37,44394,4.13,73604.8,-6.41,-6.93,-6.93,0,*5D
1512612464.64,44395,4.13,73598.5,-6.41,-6.93,-6.93,0,*5C
1512612465.86,44396,4.19,73604.0,-6.41,-6.85,-6.85,0,*5F
1512612467.08,44397,4.13,73608.8,-6.41,-6.85,-6.85,0,*5E
1512612468.3,44398,4.13,73596.8,-6.41,-6.85,-6.81,0,*55
1512612469.55,44399,4.13,73594.3,-6.41,-6.85,-6.93,0,*57
1512612470.75,44400,4.13,73600.3,-6.39,-6.85,-6.81,0,*5C
1512612471.94,44401,4.13,73608.0,-6.39,-6.85,-6.85,0,*59
1512612473.14,44402,4.13,73610.3,-6.39,-6.85,-6.85,0,*5A
1512612474.36,44403,4.13,73604.0,-6.39,-6.93,-6.85,0,*5C
1512612475.59,44404,4.19,73600.3,-6.39,-6.93,-6.85,0,*5B
1512612476.81,44405,4.13,73604.3,-6.39,-6.93,-6.85,0,*5A
1512612478.04,44406,4.13,73604.3,-6.39,-6.93,-6.85,0,*59
1512612479.29,44407,4.13,73614.0,-6.39,-6.93,-6.93,0,*5F
1512612480.53,44408,4.13,73612.0,-6.39,-6.93,-6.93,0,*50
1512612481.78,44409,4.13,73618.3,-6.39,-6.97,-6.93,0,*55
1512612483.01,44410,4.13,73614.0,-6.39,-6.93,-6.85,0,*5E
1512612484.23,44411,4.13,73616.5,-6.39,-6.97,-6.85,0,*5B
1512612485.45,44412,4.19,73622.3,-6.37,-6.89,-6.89,0,*55
1512612486.66,44413,4.13,73618.8,-6.37,-6.89,-6.89,0,*54
1512612487.91,44414,4.13,73616.8,-6.37,-6.93,-6.89,0,*58
1512612489.15,44415,4.13,73612.5,-6.37,-6.81,-6.93,0,*51
1512612490.37,44416,4.13,73608.8,-6.37,-6.81,-6.89,0,*59
1512612491.61,44417,4.13,73614.0,-6.37,-6.89,-6.93,0,*5B
1512612492.83,44418,4.13,73612.8,-6.37,-6.89,-6.89,0,*5F
1512612494.06,44419,4.13,73604.5,-6.37,-6.81,-6.81,0,*5E
1512612495.25,44420,4.13,73630.5,-6.35,-6.85,-6.89,0,*5A
1512612496.47,44421,4.13,73618.0,-6.37,-6.89,-6.89,0,*55
1512612497.74,44422,4.13,73624.5,-6.37,-6.93,-6.93,0,*56
1512612498.94,44423,4.13,73626.5,-6.35,-6.89,-6.85,0,*59
1512612500.13,44424,4.13,73618.8,-6.35,-6.85,-6.85,0,*52
1512612501.4,44425,4.13,73610.5,-6.37,-6.93,-6.93,0,*51
1512612502.6,44426,4.13,73614.8,-6.35,-6.89,-6.85,0,*5C
1512612503.82,44427,4.13,73624.0,-6.37,-6.89,-6.81,0,*5B
1512612505.06,44428,4.13,73616.0,-6.37,-6.93,-6.89,0,*57
1512612506.26,44429,4.13,73618.3,-6.35,-6.85,-6.89,0,*53
1512612507.48,44430,4.13,73616.3,-6.35,-6.97,-6.85,0,*54
1512612508.68,44431,4.13,73622.3,-6.35,-6.85,-6.89,0,*5A
1512612509.87,44432,4.13,73622.3,-6.35,-6.85,-6.85,0,*55
1512612511.12,44433,4.13,73620.5,-6.37,-6.93,-6.89,0,*5D
1512612512.31,44434,4.13,73624.0,-6.35,-6.89,-6.85,0,*5F
1512612513.51,44435,4.13,73626.5,-6.35,-6.85,-6.85,0,*52
1512612514.71,44436,4.13,73626.3,-6.35,-6.89,-6.85,0,*5D
1512612515.9,44437,4.19,73630.8,-6.35,-6.85,-6.85,0,*50
1512612517.1,44438,4.13,73628.8,-6.35,-6.89,-6.85,0,*53
1512612518.32,44439,4.13,73628.8,-6.33,-6.85,-6.89,0,*54
1512612519.54,44440,4.13,73630.8,-6.33,-6.85,-6.89,0,*5A
1512612520.75,44441,4.13,73632.0,-6.33,-6.89,-6.85,0,*5B
1512612521.95,44442,4.19,73626.3,-6.35,-6.89,-6.89,0,*52